CW2098 Weather Reports


time (UTC)temp
F
wind
direction
speed
knots
gust
knots
rain 1hr
in
rain 24hr
in
rain mn
in
humidity
%
barometer
mb
20260510164213 75 50 3.5 5.2 0.00 0.15 0.00 96 1002.9
20260510163214 75 50 2.6 4.3 0.00 0.15 0.00 97 999.5
20260510162214 75 12 2.6 4.3 0.00 0.15 0.00 97 1001.9
20260510161212 75 45 1.7 4.3 0.00 0.15 0.00 98 1002.2
20260510160650 74 65 2.6 5.2 0.00 0.15 0.00 98 1001.8
20260510155155 74 31 2.6 4.3 0.00 0.15 0.00 98 1000.3
20260510154156 74 358 2.6 4.3 0.00 0.15 0.00 98 1000.6
20260510153638 74 50 2.6 3.5 0.00 0.15 0.00 99 1000.3
20260510152154 74 27 1.7 3.5 0.00 0.15 0.00 99 999.3
20260510151155 74 64 1.7 3.5 0.00 0.15 0.00 99 999.9
20260510150155 74 28 1.7 3.5 0.00 0.15 0.00 99 999.7
20260510145141 74 39 1.7 3.5 0.00 0.15 0.00 99 1000.0
20260510144141 74 110 1.7 3.5 0.00 0.15 0.00 100 1000.1
20260510143617 73 26 1.7 2.6 0.00 0.15 0.00 100 1000.7
20260510142632 73 41 1.7 2.6 0.00 0.15 0.00 100 1000.2
20260510141142 73 40 1.7 2.6 0.00 0.15 0.00 100 1000.9
20260510140142 73 1 1.7 2.6 0.00 0.15 0.00 100 1000.5
20260510135143 73 42 0.9 2.6 0.00 0.15 0.00 100 999.1
20260510134621 73 343 1.7 2.6 0.00 0.15 0.00 100 998.5
20260510133142 73 352 0.9 1.7 0.00 0.15 0.00 100 998.9
20260510132605 73 8 1.7 2.6 0.00 0.15 0.00 100 998.3
20260510131129 73 345 0.9 1.7 0.00 0.15 0.00 100 997.3
20260510130129 73 353 1.7 2.6 0.00 0.15 0.00 100 996.9
20260510125129 72 10 1.7 3.5 0.00 0.15 0.00 100 996.9
20260510124613 72 359 0.9 2.6 0.00 0.15 0.00 100 996.7
20260510123129 72 345 1.7 3.5 0.00 0.15 0.00 100 996.3
20260510122113 72 334 0.9 2.6 0.00 0.15 0.00 100 996.2
20260510121552 72 1 1.7 3.5 0.00 0.15 0.00 100 996.3
20260510120114 72 354 1.7 2.6 0.00 0.15 0.00 100 995.8
20260510115554 72 0 0.9 2.6 0.00 0.15 0.00 100 995.5
20260510114113 72 355 0.9 1.7 0.00 0.15 0.00 100 995.3
20260510113113 72 303 0.0 1.7 0.00 0.15 0.00 100 995.3
20260510112558 72 335 0.9 1.7 0.00 0.15 0.00 100 994.9
20260510111113 72 313 0.9 2.6 0.00 0.15 0.00 100 994.5
20260510110111 71 358 0.0 0.9 0.00 0.15 0.00 100 993.2
20260510105543 71 0 0.0 0.9 0.00 0.15 0.00 100 993.3
20260510104058 71 0 0.0 0.0 0.00 0.15 0.00 100 993.4
20260510103057 71 0 0.0 0.9 0.00 0.15 0.00 100 993.5
20260510102058 71 0 0.0 0.9 0.00 0.15 0.00 100 993.0
20260510101058 71 328 0.0 0.0 0.00 0.15 0.00 100 992.6
20260510100110 71 0 0.0 0.9 0.00 0.15 0.00 100 993.0
20260510095058 72 88 0.0 1.7 0.00 0.15 0.00 100 992.7
20260510094058 71 0 0.0 1.7 0.00 0.15 0.00 100 992.8
20260510093044 71 0 0.0 0.9 0.00 0.15 0.00 100 993.0
20260510092045 71 0 0.0 0.0 0.00 0.15 0.00 100 992.9
20260510091044 71 0 0.0 0.9 0.00 0.15 0.00 100 992.8
20260510090044 71 0 0.0 0.9 0.00 0.15 0.00 99 992.0
20260510085044 71 0 0.0 0.9 0.00 0.15 0.00 99 991.5
20260510084045 71 0 0.0 0.9 0.00 0.15 0.00 99 991.9
20260510083045 72 0 0.0 1.7 0.00 0.15 0.00 99 991.8
20260510082044 72 65 0.9 1.7 0.00 0.15 0.00 99 992.2
20260510081043 72 0 0.0 1.7 0.00 0.15 0.00 99 992.8
20260510080044 71 176 0.0 0.9 0.00 0.15 0.00 99 992.8
20260510075044 71 274 0.0 2.6 0.00 0.15 0.00 99 992.5
20260510074043 71 54 0.0 0.9 0.00 0.15 0.00 99 992.2
20260510073044 71 0 0.0 0.9 0.00 0.15 0.00 99 992.3
20260510072043 71 39 0.0 0.9 0.00 0.15 0.00 99 991.9
20260510071044 71 0 0.0 0.9 0.00 0.15 0.00 99 990.7
20260510070040 71 0 0.9 2.6 0.00 0.15 0.00 99 991.4
20260510065041 71 0 0.0 0.9 0.00 0.15 0.00 99 990.9
20260510064040 71 0 0.0 0.9 0.00 0.15 0.00 99 990.7
20260510063041 71 0 0.0 0.9 0.00 0.15 0.00 99 991.1
20260510062525 71 0 0.0 1.7 0.00 0.15 0.00 99 991.2
20260510061532 71 0 0.0 1.7 0.00 0.15 0.00 99 991.7
20260510060520 71 0 0.9 2.6 0.00 0.15 0.00 99 992.0
20260510055039 71 110 0.9 3.5 0.00 0.15 0.00 99 992.3
20260510054038 71 170 0.9 3.5 0.00 0.15 0.00 99 992.5
20260510053038 71 0 0.0 1.7 0.00 0.15 0.00 99 992.8
20260510052525 71 200 0.9 1.7 0.00 0.15 0.00 99 993.2
20260510051052 71 87 0.9 2.6 0.00 0.15 0.00 99 993.4
20260510050038 71 183 0.0 2.6 0.00 0.15 0.00 98 993.0
20260510045039 71 0 0.0 0.9 0.00 0.15 0.00 98 992.8
20260510043036 71 0 0.0 0.9 0.00 0.15 0.00 98 992.4
20260510042037 71 0 0.0 1.7 0.00 0.15 0.00 98 992.1
20260510041037 71 0 0.0 0.9 0.00 0.18 0.00 98 992.2
20260510040036 71 11 0.0 0.9 0.00 0.19 0.00 98 992.2
20260510035037 71 0 0.0 1.7 0.00 0.19 0.19 98 992.6
20260510034037 71 0 0.0 1.7 0.00 0.20 0.19 98 992.8
20260510033515 71 143 0.0 1.7 0.00 0.24 0.19 98 992.9
20260510032206 71 179 0.9 1.7 0.00 0.42 0.19 98 993.1
20260510031021 72 61 0.0 1.7 0.00 0.45 0.19 98 992.8
20260510030020 72 159 0.9 2.6 0.00 0.50 0.19 98 993.0
20260510025021 72 173 1.7 2.6 0.00 0.52 0.19 98 993.1
20260510024020 72 0 0.0 0.9 0.00 0.57 0.19 98 992.5
20260510023020 72 354 0.9 1.7 0.00 0.57 0.19 97 992.1
20260510022021 72 0 0.0 1.7 0.00 0.57 0.19 97 992.3
20260510021021 72 0 0.0 0.9 0.00 0.57 0.19 97 992.3
20260510020018 72 63 0.9 1.7 0.00 0.57 0.19 97 992.0
20260510015017 72 19 0.9 2.6 0.00 0.57 0.19 97 991.9
20260510014016 72 63 0.9 1.7 0.00 0.57 0.19 97 991.9
20260510012016 72 0 0.0 0.9 0.00 0.57 0.19 97 991.4
20260510011453 72 0 0.0 1.7 0.00 0.57 0.19 97 991.3
20260510010016 72 134 0.9 1.7 0.00 0.57 0.19 96 991.6
20260510005016 72 0 0.0 1.7 0.00 0.57 0.19 96 991.6
20260510004016 72 0 0.0 1.7 0.00 0.57 0.19 96 991.6
20260510003017 72 0 0.0 1.7 0.00 0.58 0.19 96 991.6
20260510002014 72 329 0.0 0.9 0.00 0.68 0.19 96 991.7
20260510001015 72 252 0.0 0.9 0.00 0.68 0.19 96 991.8
20260510000455 72 0 0.0 0.9 0.00 0.68 0.19 96 991.7
20260509235014 72 0 0.0 1.7 0.00 0.68 0.19 95 991.5
20260509234015 72 0 0.9 2.6 0.00 0.68 0.19 95 991.7
20260509233012 72 36 1.7 2.6 0.00 0.68 0.19 95 991.6
20260509232011 72 26 1.7 3.5 0.00 0.68 0.19 95 991.6
20260509231458 72 10 1.7 3.5 0.00 0.68 0.19 95 991.6
20260509230011 73 56 1.7 2.6 0.00 0.68 0.19 95 991.7
20260509225012 72 38 1.7 3.5 0.00 0.68 0.19 95 991.8
20260509224012 72 56 2.6 5.2 0.00 0.68 0.19 95 991.6
20260509223012 72 34 1.7 4.3 0.00 0.68 0.19 95 992.1
20260509222012 73 18 1.7 4.3 0.00 0.68 0.19 95 992.3
20260509221503 73 50 2.6 7.0 0.00 0.68 0.19 95 992.3
20260509215009 73 16 3.5 7.8 0.00 0.68 0.19 95 992.0
20260509214009 73 25 3.5 6.1 0.00 0.68 0.19 95 991.7
20260509213010 73 19 3.5 6.1 0.00 0.68 0.19 94 992.1
20260509212010 73 54 2.6 5.2 0.00 0.68 0.19 94 991.7
20260509211010 73 10 3.5 9.6 0.00 0.68 0.18 94 991.6
20260509210021 73 0 2.6 7.0 0.00 0.68 0.18 94 991.7
20260509205009 74 14 2.6 7.0 0.00 0.68 0.18 94 992.1
20260509204441 75 12 1.7 3.5 0.00 0.68 0.18 94 993.0
20260509203441 75 42 1.7 3.5 0.10 0.68 0.18 94 993.3
20260509202009 75 343 0.9 3.5 0.11 0.68 0.18 94 993.3
20260509201009 75 3 0.9 2.6 0.13 0.67 0.18 94 993.1
20260509200009 75 71 0.9 1.7 0.14 0.67 0.18 93 992.5
20260509195009 75 351 1.7 4.3 0.14 0.67 0.18 92 992.0
20260509194007 76 55 2.6 7.8 0.14 0.67 0.18 90 991.2
20260509193007 78 211 1.7 4.3 0.04 0.58 0.08 82 991.0
20260509192005 80 30 0.9 2.6 0.03 0.57 0.07 80 991.1
20260509191019 80 273 0.9 2.6 0.00 0.54 0.04 77 992.2
20260509190452 80 12 0.9 3.5 0.00 0.54 0.04 76 991.8
20260509185034 81 256 0.9 2.6 0.00 0.54 0.04 74 994.3
20260509184449 82 278 1.7 5.2 0.00 0.54 0.04 74 995.0
20260509183003 82 199 1.7 5.2 0.00 0.54 0.04 72 998.0
20260509182449 82 217 0.9 2.6 0.00 0.54 0.04 71 1001.2
20260509181449 82 0 0.9 3.5 0.00 0.54 0.04 72 1001.3
20260509180442 82 48 1.7 3.5 0.00 0.54 0.04 74 1002.3
20260509175000 82 59 1.7 4.3 0.00 0.54 0.04 73 1005.1
20260509174001 81 357 1.7 3.5 0.00 0.54 0.04 75 1002.2
20260509173001 82 6 1.7 3.5 0.00 0.54 0.04 75 1001.1
20260509172445 82 241 0.9 2.6 0.00 0.54 0.04 75 1001.7
20260509171001 81 0 0.9 2.6 0.00 0.54 0.04 76 1002.6
20260509165958 80 263 0.9 2.6 0.00 0.54 0.04 78 1003.1
20260509164958 79 29 1.7 3.5 0.00 0.54 0.04 79 999.9